VANGUARD R/B, 12

Orbit data source: Space-Track

VANGUARD R/B, 12 is space debris in LEO originally from a launch on Tue, 17 Feb 1959 UTC launched from the Air Force Eastern Test Range (AFETR). Debris objects in space refer to the collection of defunct objects orbiting the Earth. Examples of debris include non-operational satellites, rocket bodies, and fragments generated from explosions, collisions, or faulty payload assembly.

Loading next visibility...
Identifier
12, 1959-001B
Orbit
LEO
Last TLE update
20 hours ago
Origin
Manufacturer
GCR/Redlands
Mission
Spacecraft
Bus & Motor
33-KS-2800, Unknown motor
Mass
22 kg wet, 22 kg dry
Launch date (UTC)
1959-02-17 (66 years ago)
Launch vehicle
Unknown
Launch site
Air Force Eastern Test Range (AFETR)
Object type
Payload
Rocket body
Debris
Shape & HBR
Cyl, 1.5 m
Radar Cross Section
1.017 m², Medium (>0.1 m² and < 1m²)

Expand to show TLE details & history

TLE from 20 hours ago
0 VANGUARD R/B
1 00012U 59001B   25128.36332379  .00000754  00000-0  44352-3 0  9999
2 00012  32.8954 211.1331 1649670 122.4138 254.6793 11.47714884484784
Epoch: 2025-05-08T08:43Z
Definitive object data (Epoch: 2025-05-08T08:43:11.175Z)
Latitude
0.00001°
Longitude
-146.09834°
Altitude
2,478.763 km
Speed
6.483 km/s
True Right ascension
14h 04m 31s
True Declination
0° 00' 00"
Sunlit
Object was in full shadow at TLE epoch
Visualization TLE readout
Latitude
-32.97748°
Longitude
123.41337°
Altitude
2,971.787 km
Speed
6.108 km/s
Apparent Right ascension
05h 40m 02s
Apparent Declination
-48° 19' 35"
Sunlit
Object is in daylight
Visualization observer readout
Local Sidereal Time
13:04:06
Azimuth
235.921° WSW
Elevation
-41.467°
Doppler factor
1
Orbital elements
Apogee altitude
3,296.938 km
Perigee altitude
556.829 km
Semi-major axis
8,305.021 km
Eccentricity
0.164967
Inclination
32.8954°
RAAN
211.1331°
Arg. of periapsis
122.4138°
True anomaly
237.64343°
Mean anomaly
254.6793°
Eccentric anomaly
246.04175°
Mean motion
2.86769 °/min
BSTAR
0.00044352
Orbital period
125.54 mins
Loading maneuver chart data...
Loading SW <> Apogee altitude chart data...
Loading historical data...
Loading historical data...
Loading historical data...
Loading historical data...
Loading historical data...
Loading historical data...
Loading historical data...
Other satellites on launch #1 in the year 1959 (1959-02-17 UTC)

VANGUARD R/B Visibility forecast

Observer location: undefined°, undefined°

Span
Click to sort rows by Start time (UTC) header in descending order
Start Az.
Max El. time (UTC)
Max El. Az.
Max El.
End time (UTC)
End Az.
14 mins2025-05-09 07:49:31.700Z207.064° SW2025-05-09 07:57:31.700Z162.962° S22.866°2025-05-09 08:03:31.700Z109.905° ESE
11 mins2025-05-09 10:04:31.700Z235.675° WSW2025-05-09 10:11:31.700Z163.416° S32.06°2025-05-09 10:15:31.700Z108.064° ESE
7 mins2025-05-09 12:19:31.700Z249.313° W2025-05-09 12:23:31.700Z185.764° SSW29.496°2025-05-09 12:26:31.700Z129.454° SE
|